When you browse on this site, cookies collect data to enhance your experience and personalize the content and advertising you see.
Visit our Privacy Policy to learn more. By continuing to use the site, you agree to this use of cookies and data.
  • In Czech Republic
  • List of Countries
  • For 7 days
  • Water Temperature
  • Satellite Maps
  • Weather Map
  • Weather Widgets
  • user-avatar
    Login

    Hourly Weather Altea

    Today, 19 January, Saturday

    Time Temperature Precipitation Wind Pressure Humidity
    00:00 +8°C° 0 mm 5 mps 761 mmHg 45%
    01:00 +8°C° 0 mm 5 mps 761 mmHg 45%
    02:00 +7°C° 0 mm 5 mps 761 mmHg 46%
    03:00 +7°C° 0 mm 5 mps 761 mmHg 47%
    04:00 +7°C° 0 mm 5 mps 761 mmHg 49%
    05:00 +6°C° 0 mm 5 mps 761 mmHg 52%
    06:00 +6°C° 0 mm 5 mps 760 mmHg 55%
    07:00 +7°C° 0 mm 5 mps 761 mmHg 53%
    08:00 +8°C° 0 mm 4 mps 761 mmHg 52%
    09:00 +10°C° 0 mm 4 mps 761 mmHg 50%
    10:00 +11°C° 0 mm 3 mps 761 mmHg 46%
    11:00 +13°C° 0 mm 2 mps 761 mmHg 41%
    12:00 +15°C° 0 mm 1 mps 761 mmHg 37%
    13:00 +15°C° 0 mm 2 mps 760 mmHg 38%
    14:00 +14°C° 0 mm 3 mps 760 mmHg 40%
    15:00 +14°C° 0 mm 4 mps 759 mmHg 41%
    16:00 +13°C° 0 mm 4 mps 759 mmHg 48%
    17:00 +11°C° 0 mm 4 mps 759 mmHg 55%
    18:00 +9°C° 0 mm 5 mps 759 mmHg 61%
    19:00 +9°C° 0 mm 5 mps 758 mmHg 63%
    20:00 +10°C° 0 mm 5 mps 758 mmHg 65%
    21:00 +10°C° 0 mm 6 mps 758 mmHg 67%
    22:00 +10°C° 0.4 mm 5 mps 758 mmHg 72%
    23:00 +10°C° 0.4 mm 5 mps 757 mmHg 76%

    Tomorrow, 20 January, Sunday

    Time Temperature Precipitation Wind Pressure Humidity
    00:00 +10°C° 0.4 mm 5 mps 757 mmHg 81%
    01:00 +10°C° 0.3 mm 5 mps 756 mmHg 81%
    02:00 +9°C° 0.3 mm 5 mps 756 mmHg 82%
    03:00 +9°C° 0.3 mm 5 mps 755 mmHg 82%
    04:00 +9°C° 0 mm 5 mps 755 mmHg 82%
    05:00 +9°C° 0 mm 5 mps 754 mmHg 82%
    06:00 +9°C° 0 mm 5 mps 754 mmHg 82%
    07:00 +11°C° 0 mm 4 mps 754 mmHg 78%
    08:00 +12°C° 0 mm 4 mps 754 mmHg 74%
    09:00 +13°C° 0 mm 3 mps 754 mmHg 70%
    10:00 +13°C° 0 mm 4 mps 754 mmHg 71%
    11:00 +13°C° 0 mm 4 mps 754 mmHg 72%
    12:00 +14°C° 0 mm 5 mps 755 mmHg 73%
    13:00 +13°C° 0.1 mm 6 mps 755 mmHg 73%
    14:00 +11°C° 0.1 mm 7 mps 755 mmHg 74%
    15:00 +10°C° 0.1 mm 8 mps 755 mmHg 74%
    16:00 +10°C° 0 mm 8 mps 755 mmHg 74%
    17:00 +10°C° 0 mm 9 mps 756 mmHg 74%
    18:00 +10°C° 0 mm 9 mps 757 mmHg 74%
    19:00 +10°C° 0 mm 9 mps 757 mmHg 75%
    20:00 +10°C° 0 mm 8 mps 758 mmHg 75%
    21:00 +10°C° 0 mm 8 mps 758 mmHg 76%
    22:00 +9°C° 0.1 mm 8 mps 759 mmHg 75%
    23:00 +9°C° 0.1 mm 8 mps 759 mmHg 75%

    Day after tomorrow, 21 January, Monday

    Time Temperature Precipitation Wind Pressure Humidity
    00:00 +9°C° 0.1 mm 7 mps 760 mmHg 74%
    01:00 +8°C° 0 mm 7 mps 760 mmHg 73%
    02:00 +8°C° 0 mm 6 mps 760 mmHg 72%
    03:00 +7°C° 0 mm 6 mps 761 mmHg 71%
    04:00 +7°C° 0 mm 5 mps 761 mmHg 70%
    05:00 +6°C° 0 mm 5 mps 761 mmHg 69%
    06:00 +6°C° 0 mm 5 mps 761 mmHg 68%
    07:00 +7°C° 0 mm 5 mps 761 mmHg 65%
    08:00 +8°C° 0 mm 5 mps 762 mmHg 62%
    09:00 +10°C° 0 mm 4 mps 762 mmHg 59%
    10:00 +11°C° 0 mm 4 mps 762 mmHg 55%
    11:00 +12°C° 0 mm 3 mps 762 mmHg 51%
    12:00 +13°C° 0 mm 3 mps 762 mmHg 48%
    13:00 +13°C° 0 mm 3 mps 762 mmHg 47%
    14:00 +13°C° 0 mm 3 mps 762 mmHg 46%
    15:00 +14°C° 0 mm 2 mps 762 mmHg 45%
    16:00 +12°C° 0 mm 2 mps 762 mmHg 53%
    17:00 +9°C° 0 mm 2 mps 762 mmHg 61%
    18:00 +7°C° 0 mm 2 mps 763 mmHg 69%
    19:00 +7°C° 0 mm 2 mps 763 mmHg 67%
    20:00 +7°C° 0 mm 2 mps 763 mmHg 65%
    21:00 +7°C° 0 mm 2 mps 763 mmHg 63%
    22:00 +7°C° 0 mm 2 mps 763 mmHg 62%
    23:00 +7°C° 0 mm 3 mps 763 mmHg 61%

    22 January, Tuesday

    Time Temperature Precipitation Wind Pressure Humidity
    00:00 +6°C° 0 mm 4 mps 763 mmHg 59%
    01:00 +5°C° 0 mm 4 mps 763 mmHg 59%
    02:00 +5°C° 0 mm 4 mps 763 mmHg 59%
    03:00 +5°C° 0 mm 4 mps 762 mmHg 59%
    04:00 +5°C° 0 mm 4 mps 762 mmHg 58%
    05:00 +5°C° 0 mm 4 mps 762 mmHg 57%
    06:00 +4°C° 0 mm 3 mps 761 mmHg 56%
    07:00 +6°C° 0 mm 4 mps 761 mmHg 55%
    08:00 +7°C° 0 mm 4 mps 761 mmHg 54%
    09:00 +8°C° 0 mm 4 mps 761 mmHg 52%
    10:00 +10°C° 0 mm 5 mps 760 mmHg 48%
    11:00 +11°C° 0 mm 6 mps 760 mmHg 45%
    12:00 +14°C° 0 mm 6 mps 759 mmHg 41%
    13:00 +12°C° 0 mm 7 mps 758 mmHg 45%
    14:00 +12°C° 0 mm 8 mps 757 mmHg 49%
    15:00 +11°C° 0 mm 8 mps 756 mmHg 53%
    16:00 +11°C° 0.2 mm 8 mps 756 mmHg 55%
    17:00 +10°C° 0.2 mm 7 mps 756 mmHg 57%
    18:00 +10°C° 0.2 mm 7 mps 756 mmHg 60%
    19:00 +10°C° 0 mm 7 mps 756 mmHg 59%
    20:00 +9°C° 0 mm 7 mps 756 mmHg 59%
    21:00 +9°C° 0 mm 7 mps 756 mmHg 58%
    22:00 +8°C° 0 mm 9 mps 756 mmHg 57%
    23:00 +7°C° 0 mm 10 mps 755 mmHg 56%

    23 January, Wednesday

    Time Temperature Precipitation Wind Pressure Humidity
    00:00 +7°C° 0 mm 12 mps 755 mmHg 54%
    01:00 +7°C° 0 mm 12 mps 755 mmHg 55%
    02:00 +7°C° 0 mm 12 mps 755 mmHg 55%
    03:00 +7°C° 0 mm 13 mps 754 mmHg 55%
    04:00 +5°C° 0 mm 13 mps 754 mmHg 55%
    05:00 +5°C° 0 mm 13 mps 754 mmHg 55%
    06:00 +5°C° 0 mm 13 mps 754 mmHg 55%
    07:00 +5°C° 0 mm 13 mps 753 mmHg 54%
    08:00 +7°C° 0 mm 13 mps 753 mmHg 53%
    09:00 +7°C° 0 mm 13 mps 753 mmHg 52%
    10:00 +8°C° 0.1 mm 13 mps 752 mmHg 52%
    11:00 +9°C° 0.1 mm 13 mps 752 mmHg 51%
    12:00 +10°C° 0.1 mm 13 mps 752 mmHg 51%
    13:00 +9°C° 0.6 mm 10 mps 751 mmHg 56%
    14:00 +7°C° 0.6 mm 8 mps 751 mmHg 61%
    15:00 +7°C° 0.6 mm 5 mps 750 mmHg 66%
    16:00 +7°C° 0.1 mm 6 mps 751 mmHg 66%
    17:00 +7°C° 0.1 mm 6 mps 751 mmHg 66%
    18:00 +8°C° 0.1 mm 7 mps 752 mmHg 66%
    19:00 +6°C° 0 mm 9 mps 752 mmHg 62%
    20:00 +4°C° 0 mm 11 mps 753 mmHg 58%
    21:00 +3°C° 0 mm 14 mps 754 mmHg 55%
    22:00 +3°C° 0 mm 13 mps 754 mmHg 54%
    23:00 +1°C° 0 mm 13 mps 754 mmHg 53%

    24 January, Thursday

    Time Temperature Precipitation Wind Pressure Humidity
    00:00 +1°C° 0 mm 13 mps 755 mmHg 52%
    01:00 +2°C° 0 mm 12 mps 754 mmHg 52%
    02:00 +2°C° 0 mm 12 mps 754 mmHg 52%
    03:00 +1°C° 0 mm 11 mps 754 mmHg 51%
    04:00 +1°C° 0 mm 10 mps 754 mmHg 51%
    05:00 +1°C° 0 mm 10 mps 754 mmHg 51%
    06:00 +1°C° 0 mm 9 mps 754 mmHg 51%
    07:00 +2°C° 0 mm 9 mps 754 mmHg 50%
    08:00 +4°C° 0 mm 8 mps 754 mmHg 49%
    09:00 +5°C° 0 mm 8 mps 754 mmHg 47%
    10:00 +6°C° 0 mm 8 mps 754 mmHg 43%
    11:00 +9°C° 0 mm 7 mps 754 mmHg 40%
    12:00 +10°C° 0 mm 7 mps 754 mmHg 36%
    13:00 +11°C° 0 mm 6 mps 753 mmHg 36%
    14:00 +11°C° 0 mm 6 mps 753 mmHg 36%
    15:00 +11°C° 0 mm 6 mps 752 mmHg 37%
    16:00 +9°C° 0 mm 5 mps 752 mmHg 42%
    17:00 +7°C° 0 mm 4 mps 752 mmHg 46%
    18:00 +6°C° 0 mm 4 mps 752 mmHg 51%
    19:00 +6°C° 0 mm 5 mps 753 mmHg 51%
    20:00 +5°C° 0 mm 6 mps 753 mmHg 50%
    21:00 +5°C° 0 mm 7 mps 753 mmHg 49%
    22:00 +5°C° 0 mm 7 mps 754 mmHg 49%
    23:00 +4°C° 0 mm 7 mps 754 mmHg 48%
    Show more